Location: Bidart
(43.4376°N, 1.5913°W)
Time: 08:21:43
(UTC+00:00)

USA 229 DEB - Pass Details

Date: 21 April 2026
Orbit: 844 x 1364 km, 63.4° (Epoch: 10 January)

Event Time Altitude Azimuth Distance (km) Brightness Sun altitude
Rises 20:10:28 0° 304° (NW) 3,721 8.6 -13.0°
Reaches altitude 10° 20:14:29 10° 329° (NNW) 2,883 7.0 -13.7°
Maximum altitude 20:18:03 14° 1° (N) 2,661 6.2 -14.2°
Drops below altitude 10° 20:21:49 10° 32° (NNE) 3,085 6.1 -14.8°
Sets 20:26:24 0° 56° (NE) 4,165 6.6 -15.5°
